Location: Johnson City
(36.3130°N, 82.3540°W)
Time: 04:57:48
(UTC-04:00)

Envisat - Pass Details

Date: 22 February 2019
Orbit: 764 x 766 km, 98.1° (Epoch: 14 October)

Event Time Altitude Azimuth Distance (km) Brightness Sun altitude
Rises 19:14:04 0° 167° (SSE) 3,213 6.1 -12.2°
Reaches altitude 10° 19:16:21 10° 168° (SSE) 2,291 5.4 -12.6°
Maximum altitude 19:21:25 86° 257° (WSW) 770 3.0 -13.6°
Drops below altitude 10° 19:26:31 10° 347° (NNW) 2,305 5.6 -14.7°
Sets 19:28:49 0° 348° (NNW) 3,235 6.4 -15.1°
